Date,TemperatureHighF,TemperatureAvgF,TemperatureLowF,DewpointHighF,DewpointAvgF,DewpointLowF,HumidityHigh,HumidityAvg,HumidityLow,PressureMaxIn,PressureMinIn,WindSpeedMaxMPH,WindSpeedAvgMPH,GustSpeedMaxMPH,PrecipitationSumIn
2013-1-1,39,35,32,36,29,22,90,78,60,29.15,28.82,12,5,12,0.00
2013-1-2,37,35,32,31,28,24,90,76,62,29.15,28.91,14,4,14,0.00
2013-1-3,44,38,34,43,34,26,96,87,69,29.18,29.09,10,2,10,0.00
2013-1-4,53,40,31,52,39,29,98,96,92,29.41,29.18,6,2,6,0.00
2013-1-5,34,32,29,31,26,22,92,78,64,29.32,28.91,16,7,16,0.00
2013-1-6,34,32,29,32,27,22,94,83,71,28.97,28.64,14,5,14,0.00
2013-1-7,37,31,26,36,24,15,95,74,61,29.00,28.64,13,6,13,0.00
2013-1-8,28,25,22,24,19,15,88,78,64,29.59,29.00,8,3,8,0.00
2013-1-9,29,22,17,27,20,14,93,89,85,29.65,29.53,9,4,9,0.00
2013-1-10,32,28,21,30,26,19,95,93,89,29.80,29.53,10,2,10,0.00
2013-1-11,36,33,30,34,31,29,96,94,91,29.77,29.50,10,2,10,0.00
2013-1-12,70,39,34,67,37,33,96,95,91,29.77,29.41,4,0,4,0.00
2013-1-13,77,73,68,74,70,65,91,90,90,29.50,29.41,6,1,6,0.00
2013-1-14,134,108,75,100,87,68,90,82,77,29.47,29.47,2,0,3,0.00
2013-1-15,134,50,27,100,36,16,83,70,53,29.83,29.47,8,2,8,0.00
2013-1-16,28,26,25,26,23,19,93,87,71,29.80,29.32,8,1,8,0.00
2013-1-17,27,21,15,25,16,8,93,82,52,29.53,29.20,5,1,5,0.00
2013-1-18,15,12,8,9,6,2,77,74,68,29.83,29.53,12,4,12,0.00
2013-1-19,26,21,13,20,14,6,82,76,71,29.83,29.44,17,8,17,0.00
2013-1-20,42,33,26,40,30,20,96,88,77,29.47,29.35,15,6,15,0.00
2013-1-21,42,42,42,40,40,40,96,96,96,29.47,29.47,4,4,0,0.00
2013-1-22,42,36,34,40,26,23,96,68,57,29.47,29.06,14,7,14,0.00
2013-1-23,37,33,30,28,25,21,79,72,63,29.09,28.94,16,7,16,0.00
2013-1-24,34,34,34,27,27,27,74,74,74,28.94,28.94,6,6,6,0.00
2013-1-25,34,31,5,27,22,-11,74,70,45,29.26,28.94,6,6,6,0.00
2013-1-26,9,4,-3,-8,-13,-19,45,45,45,29.47,29.26,8,2,8,0.00
2013-1-27,6,-1,-7,-11,-18,-23,45,45,45,29.74,29.47,8,3,8,0.00
2013-1-28,8,0,-10,-9,-16,-26,45,45,45,29.77,29.38,15,6,15,0.00
2013-1-29,14,10,8,10,-6,-9,82,47,45,29.44,29.32,18,7,18,0.00
2013-1-30,48,28,15,47,25,10,95,89,81,29.41,29.24,13,4,13,0.04
2013-1-31,60,56,48,58,55,47,95,93,93,29.47,29.32,5,0,5,0.00
2013-2-1,60,37,32,58,34,28,96,90,85,29.50,29.26,15,7,15,0.00
2013-2-2,50,40,33,48,38,29,95,91,81,29.26,28.94,15,6,15,0.00
2013-2-3,59,39,34,57,35,29,94,86,79,29.09,28.85,18,4,18,0.00
2013-2-4,53,38,33,49,35,30,97,91,83,29.29,29.09,6,1,6,0.04
2013-2-5,46,36,32,44,33,26,96,87,64,29.29,29.15,6,1,6,0.00
2013-2-6,37,35,29,36,33,26,96,94,89,29.24,29.09,3,0,0,0.00
2013-2-7,39,32,28,38,31,25,95,94,90,29.20,28.91,5,0,5,0.00
2013-2-8,50,39,35,48,38,33,97,95,94,29.32,29.00,0,0,0,0.00
2013-2-9,43,38,34,38,34,30,95,86,66,29.26,28.56,17,3,17,0.24
2013-2-10,44,37,29,43,33,23,95,85,66,29.12,28.56,20,5,20,0.28
2013-2-11,32,25,19,23,11,6,78,56,42,29.35,29.12,14,6,14,0.00
2013-2-12,28,26,22,26,22,12,92,85,63,29.38,29.29,12,4,12,0.00
2013-2-13,33,30,24,29,25,21,94,84,62,29.41,29.20,12,3,12,0.00
2013-2-14,38,34,31,36,27,22,95,79,61,29.20,28.82,16,4,16,0.00
2013-2-15,34,27,15,31,17,6,90,66,48,29.53,29.12,14,6,14,0.00
2013-2-16,30,21,14,19,10,4,88,64,43,29.56,29.32,13,5,13,0.04
2013-2-17,31,26,20,28,22,14,92,88,79,29.38,29.15,18,5,18,0.00
2013-2-18,20,13,7,14,8,-4,87,80,60,29.44,29.38,8,2,8,0.00
2013-2-19,19,13,10,15,4,-1,87,66,54,29.41,28.82,18,8,18,0.00
2013-2-20,30,23,19,28,19,13,94,84,76,28.85,28.64,18,5,18,0.00
2013-2-21,33,30,27,31,27,23,95,90,79,28.85,28.73,7,1,7,0.00
2013-2-22,34,24,17,33,13,5,95,64,41,29.06,28.82,10,4,10,0.00
2013-2-23,30,23,16,28,16,5,94,74,58,29.00,28.73,23,6,23,0.00
2013-2-24,34,31,26,32,28,23,95,88,72,29.24,28.97,8,3,8,0.00
2013-2-25,38,32,26,29,23,19,96,69,56,29.26,29.12,18,7,18,0.00
2013-2-26,42,33,30,19,15,12,61,47,39,29.15,28.91,16,8,16,0.04
2013-2-27,32,30,27,15,13,10,51,49,47,28.91,28.85,15,7,15,0.00
2013-2-28,27,27,27,10,10,10,48,48,48,28.85,28.85,12,6,12,0.00
2013-3-1,40,30,27,39,18,10,95,62,48,29.56,28.85,6,4,7,0.00
2013-3-2,46,33,26,43,30,25,97,89,68,29.65,29.56,14,3,14,0.00
2013-3-3,34,28,25,29,21,16,92,75,62,30.00,29.65,15,7,15,0.00
2013-3-4,36,32,27,24,22,16,71,65,57,30.03,29.91,10,4,10,0.00
2013-3-5,44,31,20,26,20,14,82,64,46,29.91,29.56,7,2,7,0.04
2013-3-6,41,32,27,28,23,18,90,68,50,29.56,29.44,10,2,10,0.04
2013-3-7,44,35,28,33,27,19,88,72,39,29.44,29.09,23,5,23,0.00
2013-3-8,50,38,31,32,24,19,88,57,39,29.35,29.12,17,4,17,0.00
2013-3-9,42,36,32,35,28,24,92,73,51,29.74,29.35,9,2,9,0.00
2013-3-10,38,33,29,37,28,15,95,82,55,29.85,29.68,13,5,13,0.04
2013-3-11,43,36,26,42,26,10,96,70,41,29.91,29.83,9,2,9,0.04
2013-3-12,37,29,22,11,7,2,51,39,31,29.85,29.62,18,6,18,0.00
2013-3-13,34,26,15,6,2,-4,45,35,31,29.62,29.38,15,4,15,0.00
2013-3-14,26,19,14,13,8,0,82,65,39,29.50,29.35,15,7,15,0.00
2013-3-15,38,24,13,11,6,0,64,47,30,29.47,29.32,14,4,14,0.00
2013-3-16,36,22,11,10,3,-5,53,42,32,29.74,29.44,10,3,10,0.00
2013-3-17,38,24,16,15,7,-1,76,48,35,29.74,29.65,12,2,12,0.00
2013-3-18,36,24,14,17,10,6,89,59,34,29.68,29.50,10,2,10,0.00
2013-3-19,19,16,13,12,5,-1,77,62,54,29.53,29.50,6,0,6,0.00
2013-3-21,34,25,13,9,6,-2,54,44,34,29.80,29.53,8,2,8,0.00
2013-3-22,38,27,21,30,19,6,88,72,44,29.71,29.47,9,2,9,0.00
2013-3-23,37,32,27,25,20,12,78,62,47,29.50,29.38,12,3,12,0.00
2013-3-24,29,25,20,27,17,6,93,74,47,29.47,29.20,10,3,10,0.00
2013-3-25,29,22,9,27,10,-8,94,65,41,29.32,29.03,13,4,13,0.00
2013-3-26,24,14,3,4,-3,-13,52,47,43,29.80,29.32,10,3,10,0.00
2013-3-27,25,14,3,10,-1,-10,77,52,42,29.85,29.77,10,4,10,0.00
2013-3-28,29,21,14,21,13,8,81,71,60,29.80,29.44,15,6,15,0.00
2013-3-29,47,35,29,30,24,18,85,64,44,29.59,29.38,13,4,13,0.04
2013-3-30,46,39,33,44,34,28,96,83,55,29.88,29.59,8,1,8,0.00
2013-3-31,49,42,33,47,39,27,97,89,56,29.88,29.74,9,1,9,0.04
2013-4-1,46,36,30,35,24,18,93,66,39,29.74,29.62,8,2,8,0.04
2013-4-2,45,35,28,30,21,16,93,60,38,29.77,29.65,12,2,12,0.00
2013-4-3,49,36,27,24,20,18,76,54,38,29.83,29.74,12,2,12,0.00
2013-4-4,47,34,26,22,16,8,76,50,33,29.80,29.35,13,4,13,0.00
2013-4-5,39,30,20,14,8,3,49,40,31,29.38,29.09,10,3,10,0.00
2013-4-6,35,26,21,17,10,4,61,50,42,29.15,29.00,9,3,9,0.00
2013-4-7,28,21,13,9,4,-2,57,48,37,29.38,29.15,18,6,18,0.00
2013-4-8,29,17,10,8,1,-3,55,51,41,29.38,29.18,10,2,10,0.00
2013-4-25,47,40,28,21,14,6,41,34,30,29.44,29.20,22,8,22,0.00
2013-4-26,40,33,25,19,11,5,56,39,33,29.41,29.15,17,4,17,0.00
2013-4-27,47,38,29,20,16,9,61,41,31,29.53,29.18,18,4,18,0.00
2013-4-28,48,35,25,22,13,6,69,41,30,29.77,29.53,14,4,14,0.00
2013-4-29,44,35,25,24,19,12,78,55,38,29.77,29.74,9,3,9,0.00
2013-4-30,43,37,30,34,25,14,88,63,45,29.74,29.41,12,4,12,0.00
2013-5-1,50,40,34,38,28,23,95,66,38,29.41,29.18,13,3,13,0.00
2013-5-2,54,42,34,52,38,25,95,86,66,29.47,29.26,7,1,7,0.24
2013-5-3,73,54,36,70,49,21,96,84,51,29.53,29.41,7,1,7,0.31
2013-5-4,43,38,35,33,27,20,88,66,43,29.56,29.41,9,4,8,0.00
2013-5-5,51,40,33,33,26,18,90,60,37,29.77,29.56,12,5,12,0.00
2013-5-6,47,39,34,28,24,20,77,57,38,29.88,29.74,14,5,14,0.00
2013-5-7,47,40,33,36,28,25,88,64,45,29.91,29.85,10,3,10,0.00
2013-5-8,57,46,36,38,30,20,95,58,33,29.91,29.83,13,4,13,0.00
2013-5-9,52,44,37,31,25,20,62,47,40,29.91,29.85,9,3,9,0.00
2013-5-10,61,50,36,34,28,25,69,45,33,29.85,29.56,10,4,10,0.00
2013-5-11,54,48,41,52,41,27,95,76,44,29.56,29.24,9,2,9,0.08
2013-5-12,55,49,44,45,37,30,90,65,41,29.24,29.15,10,3,10,0.04
2013-5-13,80,53,41,76,42,18,98,68,36,29.15,29.06,12,3,12,0.00
2013-5-14,50,42,34,24,18,15,52,39,31,29.29,29.12,13,4,13,0.00
2013-5-15,47,40,33,30,24,19,78,54,38,29.35,29.29,13,5,13,0.00
2013-5-16,53,44,35,51,41,28,95,91,73,29.32,29.06,13,4,13,0.31
2013-5-17,63,50,38,60,46,32,97,86,64,29.15,29.00,12,3,12,0.28
2013-5-18,43,37,31,41,24,14,95,63,37,29.77,29.15,14,5,14,0.00
2013-5-19,48,39,27,20,16,12,58,41,31,30.21,29.77,15,4,15,0.04
2013-5-20,50,40,29,32,23,17,83,51,34,30.21,30.15,10,4,10,0.00
2013-5-21,51,43,36,34,31,29,86,65,46,30.18,29.91,10,3,10,0.00
2013-5-22,53,45,39,38,34,31,87,66,52,29.91,29.77,10,5,10,0.00
2013-5-23,49,48,45,37,34,34,72,60,59,29.77,29.77,9,9,9,0.00
2013-5-24,62,56,45,38,35,31,72,45,37,29.77,29.59,13,6,13,0.00
2013-5-25,61,50,42,42,36,32,91,60,38,29.65,29.56,13,4,13,0.00
2013-5-26,68,52,45,66,47,37,98,82,53,29.59,29.50,8,3,8,0.04
2013-5-27,63,53,44,51,42,36,94,67,44,29.53,29.41,13,4,13,0.04
2013-5-28,71,57,43,47,40,31,95,57,32,29.44,29.32,10,4,10,0.00
2013-5-29,72,60,51,42,36,30,53,42,33,29.41,29.29,14,3,14,0.00
2013-5-30,63,54,46,46,40,36,92,62,43,29.65,29.41,12,4,12,0.00
2013-5-31,72,56,48,69,49,40,97,80,49,29.80,29.65,14,3,14,0.00
2013-6-1,56,51,48,51,44,38,94,78,54,29.85,29.80,10,3,10,0.04
2013-6-2,64,55,46,62,45,35,96,72,46,29.85,29.68,12,3,12,0.04
2013-6-3,60,51,45,41,36,31,83,56,41,29.68,29.35,12,4,12,0.00
2013-6-4,56,49,45,48,40,33,90,71,52,29.47,29.29,10,3,10,0.04
2013-6-5,57,53,46,54,39,30,96,63,40,29.62,29.47,12,4,12,0.00
2013-6-6,70,56,40,38,34,30,76,44,27,29.56,29.35,14,5,14,0.00
2013-6-7,68,55,42,39,36,33,77,51,34,29.59,29.35,15,4,15,0.00
2013-6-8,70,59,45,42,38,35,80,48,33,29.77,29.59,12,4,12,0.00
2013-6-9,70,62,52,43,39,36,60,43,33,29.88,29.77,12,5,12,0.00
2013-6-10,68,61,51,44,40,37,68,47,35,29.88,29.80,10,5,10,0.00
2013-6-11,71,62,50,44,40,37,76,45,33,29.80,29.71,13,4,13,0.00
2013-6-12,70,60,51,46,40,38,65,50,34,29.71,29.65,12,4,12,0.00
2013-6-13,53,52,51,41,40,40,67,65,62,29.68,29.65,8,4,8,0.00
2013-6-16,75,67,51,47,42,26,65,40,36,29.83,29.68,8,4,8,0.00
2013-6-17,78,66,55,48,45,40,70,48,32,29.80,29.56,9,4,9,0.00
2013-6-18,72,65,56,49,45,41,72,49,40,29.59,29.47,12,4,12,0.00
2013-6-19,68,58,50,47,43,39,85,58,42,29.65,29.50,24,6,24,0.00
2013-6-20,57,54,50,50,47,43,92,80,69,29.68,29.62,10,2,10,0.00
2013-6-22,57,56,53,46,42,37,72,61,49,29.65,29.38,9,3,9,0.00
2013-6-23,69,58,51,56,46,38,93,66,38,29.41,29.29,15,2,15,0.04
2013-6-24,68,58,51,56,47,44,93,69,47,29.32,29.29,8,3,8,0.04
2013-6-25,71,60,51,51,47,43,90,64,43,29.29,29.24,8,3,8,0.00
2013-6-26,80,65,53,55,48,43,79,57,31,29.56,29.26,15,3,15,0.00
2013-6-27,65,59,53,59,53,48,94,80,60,29.74,29.56,10,4,10,0.00
2013-6-28,60,56,53,58,52,49,95,84,74,29.80,29.74,8,2,8,0.00
2013-6-29,67,58,53,53,49,44,90,72,51,29.77,29.65,9,3,9,0.00
2013-6-30,61,55,51,58,48,43,94,78,57,29.68,29.47,8,2,8,0.00
2013-7-1,74,63,53,72,56,37,95,79,48,29.47,29.18,13,3,13,0.44
2013-7-2,60,53,48,53,45,38,93,76,53,29.50,29.20,10,3,10,0.00
2013-7-3,58,54,51,54,48,43,94,82,62,29.65,29.50,10,2,10,0.00
2013-7-4,60,54,50,58,51,45,95,90,80,29.68,29.59,7,1,7,0.31
2013-7-5,61,56,52,59,50,41,94,82,53,29.68,29.62,13,2,13,0.04
2013-7-6,61,57,53,56,50,41,94,79,52,29.65,29.35,9,1,9,0.04
2013-7-7,64,56,50,62,52,44,94,87,71,29.38,29.20,9,1,9,0.12
2013-7-8,69,58,51,68,50,43,97,76,47,29.47,29.32,13,4,13,0.00
2013-7-9,64,57,49,46,44,41,84,63,46,29.68,29.47,13,5,13,0.00
2013-7-10,54,53,53,45,45,45,75,74,71,29.68,29.68,10,7,10,0.00
2013-7-11,74,66,53,49,46,43,75,50,38,29.68,29.56,10,4,10,0.00
2013-7-12,74,64,53,48,46,42,79,54,35,29.65,29.59,10,4,10,0.00
2013-7-13,68,59,52,53,47,41,92,65,44,29.83,29.62,10,3,10,0.00
2013-7-14,62,58,55,61,57,51,95,94,85,29.91,29.83,10,2,10,0.00
2013-7-19,55,55,55,51,51,51,84,84,84,29.91,29.91,0,0,0,0.00
2013-7-20,73,67,55,51,43,28,84,44,34,29.91,29.71,9,3,9,0.00
2013-7-21,72,62,52,50,45,41,88,55,36,29.74,29.62,10,4,10,0.04
2013-7-22,75,66,55,48,44,40,68,46,32,29.80,29.68,12,3,12,0.00
2013-7-23,77,65,57,53,47,42,69,53,40,29.77,29.68,9,3,9,0.00
2013-7-24,77,66,55,52,50,47,82,57,41,29.71,29.62,9,4,9,0.00
2013-7-25,72,65,59,58,53,48,83,66,52,29.74,29.62,12,4,12,0.00
2013-7-26,70,65,58,68,59,54,95,81,66,29.94,29.74,8,2,8,0.84
2013-7-27,62,62,61,60,59,58,93,92,92,29.94,29.94,0,0,0,0.00
2013-8-7,67,58,56,66,54,50,94,87,80,29.97,29.35,10,5,10,0.00
2013-8-8,60,56,54,58,51,45,95,83,65,29.47,29.32,9,2,9,0.08
2013-8-9,63,59,54,61,56,50,95,91,73,29.44,29.29,12,2,12,0.35
2013-8-10,69,62,54,68,56,46,98,83,58,29.65,29.41,10,2,10,0.00
2013-8-11,68,61,53,66,60,49,96,94,87,29.65,29.59,8,1,8,0.87
2013-8-12,73,68,62,72,66,60,95,94,90,29.68,29.62,7,1,7,0.59
2013-8-13,69,60,54,67,57,51,96,90,79,29.68,29.62,8,1,8,0.00
2013-8-14,65,57,49,63,49,42,97,75,51,29.68,29.53,8,1,8,0.00
2013-8-15,67,57,49,59,51,46,98,80,53,29.53,29.35,7,1,7,0.00
2013-8-16,62,56,53,60,54,49,95,91,78,29.41,29.29,6,0,6,0.08
2013-8-18,64,60,57,60,55,52,96,84,70,29.32,29.12,9,3,9,0.12
2013-8-19,61,58,56,60,56,51,96,92,77,29.38,29.29,13,2,13,0.12
2013-8-20,64,58,54,60,54,48,97,87,65,29.50,29.38,10,3,10,0.00
2013-8-21,66,59,53,65,56,46,96,92,75,29.47,29.35,10,4,10,0.83
2013-8-22,72,68,63,71,67,62,96,95,94,29.38,29.32,8,1,8,0.33
2013-8-23,63,63,63,62,62,62,96,96,96,29.35,29.35,0,0,0,0.33
2013-8-24,63,63,63,62,62,62,96,96,96,29.35,29.35,0,0,0,0.33
2013-8-25,63,63,63,62,62,62,96,96,96,29.35,29.35,0,0,0,0.33
2013-8-26,63,63,63,62,62,62,96,96,96,29.35,29.35,0,0,0,0.33
2013-8-27,63,63,63,62,62,62,96,96,96,29.35,29.35,0,0,0,0.33
2013-8-28,63,63,63,62,62,62,96,96,96,29.35,29.35,0,0,0,0.33
2013-8-29,63,63,63,62,62,62,96,96,96,29.35,29.35,0,0,0,0.33
2013-8-30,63,63,63,62,62,62,96,96,96,29.35,29.35,0,0,0,0.33
2013-8-31,63,63,63,62,62,62,96,96,96,29.35,29.35,0,0,0,0.33
2013-9-1,63,63,63,62,62,62,96,96,96,29.35,29.35,0,0,0,0.33
2013-9-2,63,61,58,62,60,56,96,96,93,29.35,29.18,7,1,7,0.65
2013-9-3,63,56,50,60,47,40,98,73,46,29.18,28.91,22,4,22,0.04
2013-9-4,59,56,49,58,49,39,98,79,52,29.41,29.06,10,2,10,0.20
2013-9-5,60,51,45,48,43,36,90,75,44,29.62,29.41,12,2,12,0.00
2013-9-6,56,52,48,55,48,43,96,89,76,29.59,29.03,21,7,21,0.28
2013-9-7,67,59,54,66,57,52,97,94,85,29.26,29.06,13,3,13,0.33
2013-9-8,63,57,50,60,48,39,97,75,43,29.47,29.15,15,4,15,0.04
2013-9-9,65,55,50,57,46,40,95,73,43,29.47,29.24,16,4,16,0.12
2013-9-10,64,59,55,63,57,53,96,93,76,29.35,29.29,7,2,7,0.44
2013-9-11,66,59,50,65,53,40,98,82,53,29.53,29.26,10,3,10,0.35
2013-9-12,50,49,46,42,41,40,83,76,69,29.56,29.53,6,1,6,0.00
2013-9-13,62,56,46,50,46,41,88,69,48,29.56,29.44,13,5,13,0.00
2013-9-14,68,58,51,56,48,39,97,73,41,29.53,29.47,10,2,10,0.00
2013-9-15,63,53,46,49,42,35,93,67,37,29.50,29.35,9,2,9,0.00
2013-9-16,62,51,45,48,42,37,97,74,44,29.38,29.12,9,4,9,0.00
2013-9-17,48,46,46,40,39,38,77,74,72,29.15,29.09,10,5,10,0.00
2013-9-20,53,42,31,26,22,20,78,48,33,29.00,28.67,10,3,10,0.00
2013-9-21,47,40,34,45,31,20,96,72,52,28.67,28.58,12,3,12,0.04
2013-9-22,50,42,36,46,26,18,96,54,34,28.97,28.61,15,4,15,0.00
2013-9-23,53,42,35,25,20,17,55,42,31,29.35,28.97,14,4,14,0.00
2013-9-24,45,39,32,38,26,20,92,60,46,29.53,29.35,14,3,14,0.12
2013-9-25,56,52,40,54,50,39,98,95,87,29.41,29.06,8,1,8,0.78
2013-9-26,60,56,51,59,55,50,98,97,94,29.26,28.79,8,1,8,0.24
2013-9-27,56,50,45,56,43,37,98,78,59,28.79,28.53,14,4,14,0.00
2013-9-28,57,48,42,43,39,31,94,71,43,28.82,28.70,10,2,10,0.00
2013-9-29,50,46,42,33,30,28,67,56,48,29.03,28.82,15,3,15,0.00
2013-9-30,51,45,39,33,30,26,69,56,41,29.26,29.03,12,3,12,0.00
2013-10-1,54,44,35,31,28,25,76,55,39,29.41,29.26,9,2,9,0.00
2013-10-2,52,46,41,51,43,28,98,88,56,29.41,29.35,8,1,8,0.04
2013-10-3,55,49,44,52,40,33,98,73,46,29.38,29.00,20,7,20,0.00
2013-10-4,58,48,42,43,38,34,94,72,44,29.35,29.06,8,2,8,0.00
2013-10-5,48,45,41,45,40,34,95,84,60,29.41,29.35,8,3,8,0.00
2013-10-6,52,45,40,51,41,34,97,88,62,29.35,29.32,13,3,13,0.08
2013-10-7,50,45,40,48,42,37,96,88,69,29.44,29.29,10,3,10,0.08
2013-10-8,56,49,40,55,47,35,97,93,81,29.29,28.73,15,4,15,1.01
2013-10-9,51,44,37,40,29,23,88,56,39,29.35,28.76,20,6,20,0.00
2013-10-10,39,38,37,36,32,29,88,78,73,29.35,29.32,8,6,8,0.00
2013-10-11,59,54,39,58,53,36,98,97,88,29.44,29.32,6,0,6,0.08
2013-10-12,55,49,44,54,41,33,98,75,48,29.41,29.18,26,4,26,0.08
2013-10-13,53,48,45,52,44,36,97,86,58,29.32,29.06,20,3,20,0.61
2013-10-14,50,46,42,47,43,36,97,88,68,29.68,29.32,6,2,6,0.04
2013-10-15,56,49,44,55,47,39,96,91,78,29.77,29.59,8,1,8,0.25
2013-10-16,55,50,46,54,46,37,97,87,64,29.85,29.71,8,1,8,0.04
2013-10-17,53,49,46,41,35,31,79,59,44,29.71,29.32,23,5,23,0.00
2013-10-18,51,48,45,42,34,30,86,58,45,29.32,29.15,26,7,26,0.04
2013-10-19,52,48,42,42,34,29,93,60,47,29.26,28.94,28,8,28,0.00
2013-10-20,53,45,37,36,33,29,84,62,42,29.53,29.26,12,5,12,0.00
2013-10-21,50,42,38,38,32,28,92,68,49,29.62,29.53,7,2,7,0.00
2013-10-22,50,42,38,41,35,29,96,78,46,29.80,29.62,13,4,13,0.04
2013-10-23,47,39,32,42,33,25,97,82,47,29.65,29.35,12,3,12,0.00
2013-10-24,46,38,31,35,29,22,82,71,55,29.38,29.15,26,4,26,0.00
2013-10-25,52,44,38,34,30,27,82,59,41,29.77,29.18,8,2,8,0.00
2013-10-26,44,39,36,42,34,29,97,83,68,30.00,29.77,14,4,14,0.00
2013-10-27,54,47,37,54,45,29,98,93,71,29.83,29.18,15,4,15,0.98
2013-10-28,59,51,45,58,49,40,98,92,81,29.18,28.88,17,6,17,1.21
2013-10-29,52,43,38,42,35,31,90,73,50,29.18,28.94,13,4,13,0.00
2013-10-30,50,44,41,36,33,30,81,66,48,28.94,28.67,18,7,18,0.00
2013-10-31,56,47,39,55,44,33,98,91,74,29.20,28.76,6,1,6,0.04
2013-11-1,54,45,41,53,44,39,98,95,90,29.56,29.20,9,5,9,0.12
2013-11-2,41,37,34,39,33,29,94,85,74,29.56,29.32,9,2,9,0.00
2013-11-3,50,44,38,33,30,28,77,59,47,29.35,29.12,22,4,22,0.00
2013-11-4,43,39,34,33,29,25,76,67,54,29.12,28.88,16,5,16,0.00
2013-11-5,46,37,30,32,26,12,85,66,45,29.53,28.97,8,1,8,0.00
2013-11-6,35,29,25,17,13,10,68,51,41,29.62,29.50,8,2,8,0.00
2013-11-7,32,28,25,17,14,12,65,57,47,29.50,29.38,13,5,13,0.00
2013-11-8,37,28,22,27,17,12,90,65,44,29.83,29.50,6,2,6,0.00
2013-11-9,43,30,28,41,26,18,95,85,67,29.80,29.65,9,3,9,0.00
2013-11-10,54,47,39,54,46,38,98,97,92,29.65,29.32,8,2,8,0.59
2013-11-11,42,32,22,41,28,13,98,87,68,29.71,29.47,2,0,0,0.00
2013-11-12,25,21,17,13,10,7,74,62,51,29.77,29.68,9,2,9,0.00
2013-11-13,32,27,23,30,20,9,93,76,57,29.83,29.71,8,3,8,0.00
2013-11-14,32,32,31,30,30,29,93,92,92,29.74,29.65,6,2,6,0.00
2013-11-15,32,24,23,30,20,16,93,81,75,29.65,29.50,7,1,7,0.00
2013-11-16,29,23,19,18,12,7,81,62,42,29.77,29.59,8,2,8,0.00
2013-11-17,28,16,10,8,0,-5,55,49,42,29.83,29.77,9,1,8,0.00
2013-11-18,17,10,6,-1,-5,-9,50,48,45,29.80,29.74,6,1,6,0.00
2013-11-19,14,9,4,-3,-8,-12,47,46,44,29.74,29.59,13,3,13,0.00
2013-11-20,10,6,3,-8,-11,-14,44,44,44,29.68,29.53,15,7,15,0.00
2013-11-21,22,11,7,20,-3,-10,90,54,44,29.53,28.73,19,10,19,0.00
2013-11-22,29,24,19,27,19,9,94,83,57,29.09,28.73,15,5,15,0.00
2013-11-23,28,24,20,26,21,16,93,91,87,29.15,29.09,10,4,10,0.00
2013-11-24,33,32,20,32,31,17,97,97,87,29.59,29.15,8,4,8,0.00
2013-11-25,32,30,28,32,26,22,97,87,75,29.56,29.32,14,4,14,0.00
2013-11-26,34,31,29,33,27,20,96,83,64,29.53,29.38,5,0,5,0.00
2013-11-27,35,33,23,34,32,14,98,95,70,29.50,29.29,10,1,10,0.00
2013-11-28,23,13,5,14,1,-10,82,57,46,29.59,29.32,10,3,10,0.00
2013-11-29,13,6,1,-2,-9,-14,49,49,49,29.77,29.56,6,3,6,0.00
2013-11-30,10,5,1,-6,-10,-14,49,49,49,29.97,29.74,7,3,7,0.00
2013-12-1,18,10,1,1,-6,-14,49,49,45,30.15,29.97,6,2,6,0.00
2013-12-2,20,13,7,4,-2,-8,61,51,46,30.27,30.12,8,3,8,0.00
2013-12-3,22,16,7,20,10,-4,92,78,56,30.27,30.12,7,2,7,0.00
2013-12-4,26,24,19,21,19,16,90,82,71,30.15,30.00,8,3,8,0.00
2013-12-5,39,32,26,38,30,21,98,92,81,30.12,30.00,8,2,8,0.00
2013-12-6,46,42,34,45,41,33,98,98,94,30.15,30.09,6,1,6,0.00
2013-12-7,58,52,46,57,52,45,98,98,98,30.12,30.06,7,1,7,0.00
2013-12-8,58,50,42,57,49,42,98,97,95,30.09,29.97,5,2,5,0.00
2013-12-9,53,50,47,51,48,46,96,95,95,29.97,29.91,5,0,5,0.00
2013-12-10,50,50,50,49,49,49,95,95,95,29.91,29.91,0,0,0,0.00
2013-12-11,50,50,50,49,49,49,95,95,95,29.91,29.91,0,0,0,0.00
2013-12-12,50,14,9,49,1,-4,95,57,55,29.91,29.00,5,0,5,0.00
2013-12-13,19,15,9,17,8,-3,90,74,56,29.06,28.50,15,5,15,0.00
2013-12-14,23,19,14,21,16,10,92,87,80,28.70,28.50,12,4,12,0.00
2013-12-15,17,12,6,14,8,2,88,85,83,29.53,28.70,10,2,10,0.00
2013-12-16,7,4,0,3,0,-3,85,85,85,29.71,29.53,5,2,5,0.00
2013-12-17,10,4,-3,6,1,-6,85,85,85,29.97,29.71,5,2,5,0.00
2013-12-18,14,3,-5,10,-1,-8,85,85,85,29.97,29.29,21,5,21,0.00
2013-12-19,16,14,10,14,11,7,89,87,85,29.32,29.24,18,5,18,0.00
2013-12-20,26,20,14,25,16,11,94,85,78,29.32,29.24,10,3,9,0.00
2013-12-21,43,35,26,42,34,25,97,96,94,29.29,29.12,7,1,7,0.00
2013-12-22,48,42,22,47,41,20,98,97,93,29.32,29.06,4,0,3,0.00
2013-12-23,17,12,7,12,2,-4,82,65,57,29.74,29.38,0,0,0,0.00
2013-12-24,9,2,0,-2,-8,-11,61,61,61,29.74,29.38,0,0,0,0.00
2013-12-25,9,3,-2,-2,-8,-12,61,61,61,29.38,29.29,0,0,0,0.00
2013-12-26,9,5,0,-2,-6,-10,61,61,61,29.38,29.26,0,0,0,0.00
2013-12-27,17,8,1,13,-2,-10,85,64,61,29.53,29.35,13,2,13,0.00
2013-12-28,23,19,15,21,16,12,93,88,81,29.56,29.47,13,2,13,0.00
2013-12-29,25,23,21,24,22,19,95,93,88,29.56,29.29,8,3,8,0.00
2013-12-30,25,21,17,19,16,12,89,80,65,29.29,29.09,14,4,14,0.00
2013-12-31,31,22,14,29,18,11,92,85,80,29.24,28.82,17,7,17,0.00
2014-1-1,44,38,30,43,37,28,97,95,89,29.15,28.70,15,4,15,0.04
2014-1-2,38,31,29,37,28,25,96,86,79,29.65,29.15,8,3,8,0.00